Time,TemperatureF,DewpointF,PressureIn,WindDirection,WindDirectionDegrees,WindSpeedMPH,WindSpeedGustMPH,Humidity,HourlyPrecipIn,Conditions,Clouds,dailyrainin,SoftwareType,DateUTC
2013-01-12 00:05:00,71.2,70.6,29.86,ESE,112,2.7,-999.0,98,-99.99,,,0.00,Acu-Link.com,2013-01-12 06:05:00,
2013-01-12 00:20:00,71.2,70.6,29.87,SSE,157,3.7,-999.0,98,-99.99,,,0.00,Acu-Link.com,2013-01-12 06:20:00,
2013-01-12 00:35:00,71.2,70.6,29.86,ESE,112,3.7,-999.0,98,-99.99,,,0.00,Acu-Link.com,2013-01-12 06:35:00,
2013-01-12 00:50:00,71.2,70.6,29.87,SE,135,2.7,-999.0,98,-99.99,,,0.01,Acu-Link.com,2013-01-12 06:50:00,
2013-01-12 01:05:00,71.2,70.6,29.87,ESE,112,1.1,-999.0,98,-99.99,,,0.01,Acu-Link.com,2013-01-12 07:05:00,
2013-01-12 01:21:00,71.2,70.6,29.88,ESE,112,1.7,-999.0,98,-99.99,,,0.01,Acu-Link.com,2013-01-12 07:21:00,
2013-01-12 01:36:00,71.2,70.6,29.88,SSW,202,4.2,-999.0,98,-99.99,,,0.01,Acu-Link.com,2013-01-12 07:36:00,
2013-01-12 01:51:00,71.1,70.5,29.87,ESE,112,1.7,-999.0,98,-99.99,,,0.01,Acu-Link.com,2013-01-12 07:51:00,
2013-01-12 02:06:00,71.1,70.5,29.85,South,180,3.2,-999.0,98,-99.99,,,0.01,Acu-Link.com,2013-01-12 08:06:00,
2013-01-12 02:21:00,71.1,70.5,29.87,ESE,112,3.7,-999.0,98,-99.99,,,0.01,Acu-Link.com,2013-01-12 08:21:00,
2013-01-12 02:36:00,71.1,70.5,29.85,East,90,2.2,-999.0,98,-99.99,,,0.01,Acu-Link.com,2013-01-12 08:36:00,
2013-01-12 02:51:00,70.9,70.3,29.85,NNE,22,2.2,-999.0,98,-99.99,,,0.01,Acu-Link.com,2013-01-12 08:51:00,
2013-01-12 03:10:00,70.7,70.1,29.87,SE,135,2.2,-999.0,98,-99.99,,,0.01,Acu-Link.com,2013-01-12 09:10:00,
2013-01-12 03:25:00,70.5,69.9,29.87,ESE,112,2.2,-999.0,98,-99.99,,,0.01,Acu-Link.com,2013-01-12 09:25:00,
2013-01-12 03:40:00,70.2,69.6,29.86,ESE,112,1.7,-999.0,98,-99.99,,,0.01,Acu-Link.com,2013-01-12 09:40:00,
2013-01-12 03:55:00,70.2,69.6,29.83,ESE,112,1.7,-999.0,98,-99.99,,,0.01,Acu-Link.com,2013-01-12 09:55:00,
2013-01-12 04:10:00,70.2,69.6,29.86,ESE,112,2.2,-999.0,98,-99.99,,,0.01,Acu-Link.com,2013-01-12 10:10:00,
2013-01-12 04:25:00,69.8,69.2,29.83,ESE,112,3.2,-999.0,98,-99.99,,,0.01,Acu-Link.com,2013-01-12 10:25:00,
2013-01-12 04:40:00,69.6,69.0,29.83,ESE,112,2.2,-999.0,98,-99.99,,,0.01,Acu-Link.com,2013-01-12 10:40:00,
2013-01-12 04:55:00,69.3,68.7,29.83,ESE,112,2.7,-999.0,98,-99.99,,,0.01,Acu-Link.com,2013-01-12 10:55:00,
2013-01-12 05:11:00,69.3,68.7,29.84,ESE,112,2.2,-999.0,98,-99.99,,,0.01,Acu-Link.com,2013-01-12 11:11:00,
2013-01-12 05:26:00,69.1,68.5,29.85,ESE,112,2.2,-999.0,98,-99.99,,,0.01,Acu-Link.com,2013-01-12 11:26:00,
2013-01-12 05:41:00,68.7,68.1,29.86,ESE,112,3.7,-999.0,98,-99.99,,,0.01,Acu-Link.com,2013-01-12 11:41:00,
2013-01-12 05:56:00,68.7,68.1,29.86,ESE,112,3.2,-999.0,98,-99.99,,,0.01,Acu-Link.com,2013-01-12 11:56:00,
2013-01-12 06:11:00,68.5,67.9,29.86,SSE,157,1.7,-999.0,98,-99.99,,,0.01,Acu-Link.com,2013-01-12 12:11:00,
2013-01-12 06:26:00,68.4,67.8,29.86,ESE,112,2.2,-999.0,98,-99.99,,,0.01,Acu-Link.com,2013-01-12 12:26:00,
2013-01-12 06:41:00,68.5,67.9,29.88,ESE,112,3.2,-999.0,98,-99.99,,,0.01,Acu-Link.com,2013-01-12 12:41:00,
2013-01-12 06:56:00,68.5,67.9,29.88,ESE,112,2.2,-999.0,98,-99.99,,,0.01,Acu-Link.com,2013-01-12 12:56:00,
2013-01-12 07:11:00,68.5,67.9,29.86,ENE,67,1.1,-999.0,98,-99.99,,,0.01,Acu-Link.com,2013-01-12 13:11:00,
2013-01-12 07:27:00,68.9,68.3,29.88,ESE,112,0.0,-999.0,98,-99.99,,,0.01,Acu-Link.com,2013-01-12 13:27:00,
2013-01-12 07:42:00,68.9,68.3,29.89,ESE,112,2.7,-999.0,98,-99.99,,,0.01,Acu-Link.com,2013-01-12 13:42:00,
2013-01-12 07:57:00,69.4,68.8,29.89,East,90,2.7,-999.0,98,-99.99,,,0.01,Acu-Link.com,2013-01-12 13:57:00,
2013-01-12 08:12:00,69.8,69.2,29.88,ESE,112,4.2,-999.0,98,-99.99,,,0.01,Acu-Link.com,2013-01-12 14:12:00,
2013-01-12 08:27:00,70.0,69.4,29.88,ESE,112,3.7,-999.0,98,-99.99,,,0.01,Acu-Link.com,2013-01-12 14:27:00,
2013-01-12 08:42:00,70.5,69.9,29.89,SE,135,1.7,-999.0,98,-99.99,,,0.01,Acu-Link.com,2013-01-12 14:42:00,
2013-01-12 08:57:00,70.9,70.3,29.88,ESE,112,5.8,-999.0,98,-99.99,,,0.01,Acu-Link.com,2013-01-12 14:57:00,
2013-01-12 09:12:00,72.0,71.4,29.86,SSE,157,4.2,-999.0,98,-99.99,,,0.01,Acu-Link.com,2013-01-12 15:12:00,
2013-01-12 09:27:00,72.9,72.3,29.89,South,180,3.7,-999.0,98,-99.99,,,0.01,Acu-Link.com,2013-01-12 15:27:00,
2013-01-12 09:43:00,73.9,73.3,29.88,SE,135,3.7,-999.0,98,-99.99,,,0.01,Acu-Link.com,2013-01-12 15:43:00,
2013-01-12 09:58:00,75.2,74.6,29.86,South,180,6.3,-999.0,98,-99.99,,,0.01,Acu-Link.com,2013-01-12 15:58:00,
2013-01-12 10:13:00,76.1,75.2,29.89,WNW,292,3.7,-999.0,97,-99.99,,,0.01,Acu-Link.com,2013-01-12 16:13:00,
2013-01-12 10:28:00,76.5,75.0,29.85,SE,135,4.2,-999.0,95,-99.99,,,0.01,Acu-Link.com,2013-01-12 16:28:00,
2013-01-12 10:43:00,76.5,74.6,29.87,South,180,2.2,-999.0,94,-99.99,,,0.01,Acu-Link.com,2013-01-12 16:43:00,
2013-01-12 10:58:00,75.7,73.8,29.83,ESE,112,6.8,-999.0,94,-99.99,,,0.01,Acu-Link.com,2013-01-12 16:58:00,
2013-01-12 11:13:00,76.6,74.4,29.86,SSW,202,3.7,-999.0,93,-99.99,,,0.01,Acu-Link.com,2013-01-12 17:13:00,
2013-01-12 11:28:00,77.0,74.2,29.86,South,180,3.7,-999.0,91,-99.99,,,0.01,Acu-Link.com,2013-01-12 17:28:00,
2013-01-12 11:43:00,79.2,75.0,29.81,East,90,8.9,-999.0,87,-99.99,,,0.01,Acu-Link.com,2013-01-12 17:43:00,
2013-01-12 11:59:00,80.4,75.1,29.80,South,180,6.3,-999.0,84,-99.99,,,0.01,Acu-Link.com,2013-01-12 17:59:00,
2013-01-12 12:14:00,78.8,74.2,29.81,SE,135,3.7,-999.0,86,-99.99,,,0.01,Acu-Link.com,2013-01-12 18:14:00,
2013-01-12 12:29:00,79.7,74.1,29.81,SE,135,9.4,-999.0,83,-99.99,,,0.01,Acu-Link.com,2013-01-12 18:29:00,
2013-01-12 12:44:00,79.3,73.3,29.81,SSE,157,5.8,-999.0,82,-99.99,,,0.01,Acu-Link.com,2013-01-12 18:44:00,
2013-01-12 12:59:00,79.2,72.9,29.78,South,180,5.3,-999.0,81,-99.99,,,0.01,Acu-Link.com,2013-01-12 18:59:00,
2013-01-12 13:14:00,79.5,72.8,29.76,ESE,112,6.8,-999.0,80,-99.99,,,0.01,Acu-Link.com,2013-01-12 19:14:00,
2013-01-12 13:29:00,79.0,73.0,29.79,SSW,202,10.9,-999.0,82,-99.99,,,0.01,Acu-Link.com,2013-01-12 19:29:00,
2013-01-12 13:44:00,80.1,73.0,29.79,ESE,112,8.3,-999.0,79,-99.99,,,0.01,Acu-Link.com,2013-01-12 19:44:00,
2013-01-12 13:59:00,79.2,72.5,29.75,ESE,112,2.2,-999.0,80,-99.99,,,0.01,Acu-Link.com,2013-01-12 19:59:00,
2013-01-12 14:15:00,81.0,73.9,29.78,NNE,22,6.3,-999.0,79,-99.99,,,0.01,Acu-Link.com,2013-01-12 20:15:00,
2013-01-12 14:30:00,80.2,72.7,29.74,ENE,67,4.7,-999.0,78,-99.99,,,0.01,Acu-Link.com,2013-01-12 20:30:00,
2013-01-12 14:45:00,79.9,71.6,29.78,SSW,202,7.3,-999.0,76,-99.99,,,0.01,Acu-Link.com,2013-01-12 20:45:00,
2013-01-12 15:00:00,79.2,71.7,29.78,East,90,10.4,-999.0,78,-99.99,,,0.01,Acu-Link.com,2013-01-12 21:00:00,
2013-01-12 15:15:00,78.8,71.7,29.79,South,180,7.8,-999.0,79,-99.99,,,0.01,Acu-Link.com,2013-01-12 21:15:00,
2013-01-12 15:30:00,78.1,71.4,29.75,ESE,112,4.7,-999.0,80,-99.99,,,0.01,Acu-Link.com,2013-01-12 21:30:00,
2013-01-12 15:45:00,77.7,72.1,29.78,SSE,157,5.8,-999.0,83,-99.99,,,0.01,Acu-Link.com,2013-01-12 21:45:00,
2013-01-12 16:00:00,77.5,72.6,29.76,East,90,2.7,-999.0,85,-99.99,,,0.01,Acu-Link.com,2013-01-12 22:00:00,
2013-01-12 16:15:00,77.4,72.9,29.77,SE,135,3.7,-999.0,86,-99.99,,,0.01,Acu-Link.com,2013-01-12 22:15:00,
2013-01-12 16:31:00,77.0,72.8,29.78,SE,135,6.8,-999.0,87,-99.99,,,0.01,Acu-Link.com,2013-01-12 22:31:00,
2013-01-12 16:46:00,75.9,72.4,29.78,ESE,112,3.2,-999.0,89,-99.99,,,0.01,Acu-Link.com,2013-01-12 22:46:00,
2013-01-12 17:01:00,75.6,72.8,29.75,East,90,5.3,-999.0,91,-99.99,,,0.01,Acu-Link.com,2013-01-12 23:01:00,
2013-01-12 17:16:00,75.0,72.5,29.77,East,90,3.2,-999.0,92,-99.99,,,0.01,Acu-Link.com,2013-01-12 23:16:00,
2013-01-12 17:31:00,74.5,72.7,29.77,South,180,4.7,-999.0,94,-99.99,,,0.01,Acu-Link.com,2013-01-12 23:31:00,
2013-01-12 17:46:00,74.1,72.6,29.77,SSE,157,2.2,-999.0,95,-99.99,,,0.01,Acu-Link.com,2013-01-12 23:46:00,
2013-01-12 18:01:00,73.9,72.7,29.77,South,180,2.7,-999.0,96,-99.99,,,0.01,Acu-Link.com,2013-01-13 00:01:00,
2013-01-12 18:16:00,73.4,72.5,29.77,NE,45,1.7,-999.0,97,-99.99,,,0.01,Acu-Link.com,2013-01-13 00:16:00,
2013-01-12 18:31:00,73.0,72.4,29.76,ESE,112,4.2,-999.0,98,-99.99,,,0.01,Acu-Link.com,2013-01-13 00:31:00,
2013-01-12 18:47:00,72.9,72.3,29.72,SE,135,4.2,-999.0,98,-99.99,,,0.01,Acu-Link.com,2013-01-13 00:47:00,
2013-01-12 19:02:00,72.9,72.3,29.76,South,180,6.3,-999.0,98,-99.99,,,0.01,Acu-Link.com,2013-01-13 01:02:00,
2013-01-12 19:17:00,72.7,72.1,29.77,SSE,157,3.7,-999.0,98,-99.99,,,0.01,Acu-Link.com,2013-01-13 01:17:00,
2013-01-12 19:32:00,72.7,72.1,29.78,NE,45,0.0,-999.0,98,-99.99,,,0.01,Acu-Link.com,2013-01-13 01:32:00,
2013-01-12 19:47:00,72.7,72.1,29.75,SE,135,4.2,-999.0,98,-99.99,,,0.01,Acu-Link.com,2013-01-13 01:47:00,
2013-01-12 20:02:00,72.9,72.3,29.76,ENE,67,8.3,-999.0,98,-99.99,,,0.01,Acu-Link.com,2013-01-13 02:02:00,
2013-01-12 20:17:00,72.9,72.3,29.78,South,180,3.7,-999.0,98,-99.99,,,0.01,Acu-Link.com,2013-01-13 02:17:00,
2013-01-12 20:32:00,72.5,71.9,29.78,ESE,112,4.7,-999.0,98,-99.99,,,0.01,Acu-Link.com,2013-01-13 02:32:00,
2013-01-12 20:47:00,72.5,71.9,29.73,ESE,112,3.7,-999.0,98,-99.99,,,0.01,Acu-Link.com,2013-01-13 02:47:00,
2013-01-12 21:03:00,72.3,71.7,29.73,ENE,67,1.7,-999.0,98,-99.99,,,0.01,Acu-Link.com,2013-01-13 03:03:00,
2013-01-12 21:18:00,72.3,71.7,29.73,ESE,112,4.7,-999.0,98,-99.99,,,0.01,Acu-Link.com,2013-01-13 03:18:00,
2013-01-12 21:33:00,72.0,71.4,29.77,SE,135,4.2,-999.0,98,-99.99,,,0.01,Acu-Link.com,2013-01-13 03:33:00,
2013-01-12 21:48:00,71.8,71.2,29.76,SSE,157,6.3,-999.0,98,-99.99,,,0.01,Acu-Link.com,2013-01-13 03:48:00,
2013-01-12 22:03:00,71.6,71.0,29.76,ESE,112,5.8,-999.0,98,-99.99,,,0.01,Acu-Link.com,2013-01-13 04:03:00,
2013-01-12 22:18:00,71.6,71.0,29.75,ESE,112,4.2,-999.0,98,-99.99,,,0.01,Acu-Link.com,2013-01-13 04:18:00,
2013-01-12 22:33:00,71.4,70.8,29.75,West,270,4.7,-999.0,98,-99.99,,,0.01,Acu-Link.com,2013-01-13 04:33:00,
2013-01-12 22:48:00,71.6,71.0,29.76,SSE,157,4.7,-999.0,98,-99.99,,,0.01,Acu-Link.com,2013-01-13 04:48:00,
2013-01-12 23:03:00,71.6,71.0,29.77,ESE,112,5.3,-999.0,98,-99.99,,,0.01,Acu-Link.com,2013-01-13 05:03:00,
2013-01-12 23:19:00,72.0,71.4,29.77,ESE,112,1.7,-999.0,98,-99.99,,,0.01,Acu-Link.com,2013-01-13 05:19:00,
2013-01-12 23:34:00,72.0,71.4,29.77,ESE,112,5.8,-999.0,98,-99.99,,,0.01,Acu-Link.com,2013-01-13 05:34:00,
2013-01-12 23:49:00,72.1,71.5,29.73,East,90,4.2,-999.0,98,-99.99,,,0.01,Acu-Link.com,2013-01-13 05:49:00,